Regional Weather Roundup
Issued by NWS

Home | Current Version | Previous Version | Graphics & Text | Print | Product List | Glossary On
Versions: 1 2 3 4 5 6 7 8 9 10 11 12 13 14 15 16 17 18 19 20 21 22 23 24 25 26 27 28 29 30 31 32 33 34 35 36 37 38 39 40 41 42 43 44 45 46 47 48 49 50
001
ASUS43 KOAX 021610
RWRNE

WEATHER ROUNDUP FOR NEBRASKA
NATIONAL WEATHER SERVICE OMAHA NE
1000 AM CST FRI DEC 02 2016

NOTES: SATELLITE DATA IS BEING USED TO AUGMENT CLOUD COVER ABOVE
       12000 FEET.
       "FAIR" INDICATES FEW OR NO CLOUDS BELOW 12,000 FEET WITH NO
       SIGNIFICANT WEATHER AND/OR OBSTRUCTIONS TO VISIBILITY.

  * THESE STATIONS DO NOT REPORT WEATHER SUCH AS RAIN...SNOW OR FOG.

NEZ001>004-019>022-054>056-021700-
NEBRASKA PANHANDLE

CITY           SKY/WX    TMP DP  RH WIND       PRES   REMARKS
SCOTTSBLUFF    SUNNY     26  19  74 NW7       30.20R WCI  18
ALLIANCE       SUNNY     24  20  84 SW3       30.17R
CHADRON        SUNNY     31  23  72 W8        30.20R WCI  23
KIMBALL        SUNNY     27  24  89 W3        30.19R
SIDNEY         SUNNY     27  21  78 NW7       30.20R WCI  19
$$

NEZ057>060-069>072-079>082-021700-
SOUTHWEST NEBRASKA

CITY           SKY/WX    TMP DP  RH WIND       PRES   REMARKS
NORTH PLATTE   SUNNY     27  20  75 NW5       30.22R WCI  22
IMPERIAL       SUNNY     27  18  69 W5        30.23R WCI  22
LEXINGTON      SUNNY     29  25  86 CALM      30.24R
MCCOOK         SUNNY     24  17  74 SW6       30.25R WCI  17
OGALLALA       SUNNY     27  21  79 W5        30.22R WCI  21
$$

NEZ005>010-023>029-035>040-094-021700-
NORTH CENTRAL NEBRASKA

CITY           SKY/WX    TMP DP  RH WIND       PRES   REMARKS
VALENTINE      MOSUNNY   29  23  78 CALM      30.22R
AINSWORTH      MOSUNNY   28  26  92 N5        30.22R WCI  22
BROKEN BOW     SUNNY     31  24  75 CALM      30.23R
O`NEILL        CLOUDY    30  29  96 NW6       30.25R WCI  24
ORD            SUNNY     31  24  75 N3        30.25R
THEDFORD       SUNNY     32  26  77 CALM      30.22R
$$

NEZ041-046>049-061>064-073>077-083>087-021700-
SOUTH CENTRAL NEBRASKA

CITY           SKY/WX    TMP DP  RH WIND       PRES   REMARKS
GRAND ISLAND   SUNNY     31  28  89 N5        30.26R WCI  26
AURORA         SUNNY     32  29  88 CALM      30.26S
HASTINGS       SUNNY     32  27  81 NE8       30.25S WCI  25
HEBRON         SUNNY     31  27  85 CALM      30.28R
HOLDREGE       SUNNY     30  26  84 E5        30.23R WCI  25
KEARNEY *      SUNNY     28  25  86 N7        30.25R WCI  21
YORK           SUNNY     32  28  86 N6        30.27S WCI  26
$$

NEZ011>018-030>034-042>045-021700-
NORTHEAST NEBRASKA

CITY           SKY/WX    TMP DP  RH WIND       PRES   REMARKS
NORFOLK        SUNNY     30  25  81 W7        30.26R WCI  23
ALBION         SUNNY     29  26  86 NW5       30.26R WCI  24
BLAIR          SUNNY     34  30  86 NW6       30.26R WCI  28
FREMONT        SUNNY     33  30  88 CALM      30.28R
TEKAMAH        CLOUDY    35  30  82 CALM      30.28R
WAYNE          CLOUDY    33  30  89 NW7       30.26R WCI  27
$$

NEZ050>053-065>068-078-088>093-021700-
SOUTHEAST NEBRASKA

CITY           SKY/WX    TMP DP  RH WIND       PRES   REMARKS
LINCOLN        SUNNY     33  27  78 N3        30.29R
OMAHA EPPLEY   MOSUNNY   37  29  72 CALM      30.28R
BEATRICE       SUNNY     33  29  85 N5        30.27R WCI  29
FALLS CITY     SUNNY     33  28  81 CALM      30.28R
NEBRASKA CITY  SUNNY     34  28  76 N3        30.27R
PLATTSMOUTH    SUNNY     34  28  79 NW5       30.27R WCI  30
$$

NEZ044-045-051>053-067-021700-
OMAHA AREA

CITY           SKY/WX    TMP DP  RH WIND       PRES   REMARKS
OMAHA EPPLEY   MOSUNNY   37  29  72 CALM      30.28R
BLAIR          SUNNY     34  30  86 NW6       30.26R WCI  28
FREMONT        SUNNY     33  30  88 CALM      30.28R
MILLARD        SUNNY     35  29  79 W3        30.28R
OFFUTT AFB     SUNNY     35  32  88 NW5       30.27R WCI  31
PLATTSMOUTH    SUNNY     34  28  79 NW5       30.27R WCI  30
WAHOO          FAIR      34  29  81 NW5       30.28R WCI  30
$$




USA.gov is the U.S. government's official web portal to all federal, state and local government web resources and services.